Temp
71 72 73 74 75 75 75 75 74 74 74 74 74 75 75 74 73 72 71 71 71 73 74 74 74 75 74 74 73 73 74 74 74 74 74 74 74 74 74 74 73 73 72 73 73 73 72 73 73 73 74 73 73 72 74 77 80 80 79 77 75 74
71 71 73 74 75 75 74 73 73 72 73 73 74 75 75 73 73 71 72 71 70 71 72 73 74 76 75 75 74 73 74 74 74 74 73 73 73 73 73 73 73 72 72 73 72 72 73 72 72 73 73 73 71 73 76 78 79 80 78 75 74 73
72 72 74 74 75 74 74 73 72 73 72 73 75 75 74 73 71 70 70 72 69 69 71 71 73 76 76 75 74 74 74 74 74 74 73 73 73 73 72 72 72 72 72 72 72 72 75 75 72 73 73 72 72 75 78 79 78 77 77 75 74 74
74 74 74 73 74 74 73 71 71 72 73 72 72 73 73 71 70 71 72 71 69 71 71 70 74 77 76 75 73 73 74 74 74 73 73 73 73 73 73 72 73 72 72 73 73 74 77 78 75 72 72 73 74 77 79 78 78 78 76 77 75 73
75 75 74 73 74 73 71 72 72 72 71 72 72 73 73 70 69 70 70 70 71 71 71 71 72 73 73 72 74 73 73 73 73 72 73 73 72 74 71 73 73 72 72 73 75 75 76 77 77 77 75 76 77 79 79 78 76 76 77 75 73 73
76 77 76 75 75 75 73 72 72 72 73 73 74 74 73 70 69 69 69 70 70 69 69 71 71 72 73 70 73 73 73 73 74 73 72 73 74 73 72 74 74 74 73 74 76 76 77 76 77 77 78 77 79 79 78 77 76 75 74 73 72 73
76 76 76 76 77 75 74 73 74 74 74 74 74 74 73 70 69 69 70 70 69 68 69 71 72 72 70 71 71 72 71 71 71 72 73 73 72 73 73 72 73 73 74 75 75 78 79 79 78 80 78 79 78 79 78 73 73 76 74 73 72 73
76 76 76 77 76 75 73 73 74 74 74 75 75 74 72 71 70 69 70 69 70 69 70 71 71 69 68 69 70 73 72 71 72 72 72 72 71 72 72 72 71 71 66 67 66 71 74 81 79 77 78 78 79 78 77 75 72 76 74 73 72 72
77 76 77 77 76 75 74 74 73 72 74 75 74 74 72 71 70 70 69 70 70 69 69 69 71 71 73 71 71 71 71 70 69 71 72 72 72 70 70 70 70 68 67 67 67 66 66 68 69 77 78 79 78 79 68 69 71 72 74 73 72 72
76 77 77 78 75 73 74 74 73 72 73 75 73 73 72 71 69 69 69 69 70 69 68 68 69 68 69 70 69 69 68 68 69 69 70 69 71 70 69 69 68 68 68 68 68 67 67 69 71 73 80 79 79 78 68 67 71 72 73 74 72 71
74 74 77 76 75 74 75 73 72 73 75 74 73 73 72 70 69 69 69 70 69 70 69 69 68 69 71 70 67 67 67 68 68 69 70 69 68 69 69 68 67 66 67 67 66 68 67 68 69 71 73 79 79 78 74 69 72 71 72 73 72 71
71 72 75 75 76 75 75 75 75 75 74 75 74 73 71 69 69 68 69 68 68 68 69 69 69 69 71 70 68 68 68 69 69 70 72 69 68 68 68 68 68 68 67 67 67 67 67 67 68 70 74 73 75 73 72 68 70 70 72 73 73 73
72 72 72 74 74 76 75 76 74 73 73 74 74 71 69 68 69 69 69 68 69 69 71 71 70 71 71 70 69 70 70 71 70 70 70 70 69 69 69 68 67 68 69 68 67 67 68 67 67 69 69 73 72 75 71 71 68 71 71 69 68 68
69 69 70 70 70 70 71 74 73 72 72 73 73 70 68 68 69 68 68 68 70 73 73 71 71 71 72 70 70 70 71 71 72 71 70 70 69 70 69 68 67 67 69 69 69 68 67 67 67 68 69 71 73 73 67 69 68 69 68 67 67 67
69 68 68 68 67 68 69 70 71 71 70 71 71 70 68 71 71 68 67 67 71 74 74 73 73 72 71 70 69 70 71 71 72 72 71 69 69 70 69 68 68 68 67 67 68 67 67 66 66 68 68 68 68 70 67 66 66 67 67 67 68 68
68 67 67 67 67 68 69 69 70 72 70 71 71 73 69 70 71 68 68 70 74 74 75 75 74 73 70 72 71 71 71 72 72 71 71 70 70 70 70 70 70 70 67 68 67 67 66 66 67 67 67 67 67 66 66 66 66 67 67 67 67 67
67 66 66 66 66 67 67 67 67 68 72 70 69 70 69 69 72 75 75 75 74 74 75 74 74 73 71 70 70 71 72 72 72 71 70 70 70 70 70 71 68 69 69 66 69 69 68 66 67 68 68 68 67 66 65 67 66 65 67 66 66 67
66 67 66 65 65 66 67 67 67 65 71 72 74 76 77 78 75 75 76 75 75 74 74 75 74 73 71 70 72 72 71 71 71 70 70 70 70 71 70 70 68 69 69 68 68 67 67 67 68 68 66 66 66 66 66 67 66 67 68 67 66 66
67 67 67 66 66 67 68 67 68 67 72 76 78 79 78 77 75 74 75 75 75 75 74 74 74 73 71 72 71 70 69 70 70 69 70 70 70 70 68 69 68 68 69 69 68 68 67 67 68 66 66 66 66 66 66 66 67 68 69 68 68 68
68 68 67 67 67 66 68 69 71 73 75 76 77 76 76 76 75 75 76 75 74 74 76 74 75 73 72 72 71 69 69 70 69 69 69 69 68 69 69 68 68 68 68 68 70 68 67 65 66 65 64 65 66 66 67 65 66 67 67 68 67 67
68 69 68 67 67 69 68 69 72 73 73 74 75 76 76 76 76 75 77 78 76 75 75 74 74 74 73 72 71 70 70 71 70 70 68 68 69 69 69 69 68 67 68 67 66 67 67 66 65 63 64 64 65 67 68 67 66 66 67 66 66 67
68 69 69 68 68 68 69 71 73 74 74 74 74 74 73 74 74 76 75 75 75 75 75 74 74 74 73 70 69 70 70 70 70 70 69 69 69 69 69 69 68 67 69 67 65 66 66 66 63 63 60 61 62 63 65 67 67 66 66 67 66 65
69 68 68 69 70 69 70 72 74 74 74 75 77 75 77 76 76 77 74 75 75 76 75 75 75 74 75 74 72 70 69 70 70 70 69 68 68 68 68 68 68 67 66 67 65 67 66 66 61 63 63 61 59 58 60 63 65 66 66 66 67 65
69 69 68 68 68 70 70 74 74 72 73 73 72 74 74 74 74 75 75 75 75 75 76 76 77 78 75 74 73 72 72 72 70 71 68 66 67 68 67 66 67 67 66 64 64 64 66 66 65 64 58 59 59 60 56 58 60 63 66 66 67 64
68 68 68 67 68 69 71 73 72 73 73 72 73 72 72 71 73 73 74 73 73 76 75 75 75 76 76 73 73 73 73 72 72 71 71 68 68 68 68 69 68 66 65 65 63 63 64 65 65 65 62 61 59 58 58 59 61 60 65 64 65 64
69 69 68 68 68 68 68 71 70 68 68 69 68 70 69 68 70 71 73 73 76 76 76 75 75 75 76 74 72 73 73 73 72 72 72 71 72 71 69 68 68 68 66 65 65 64 62 64 66 66 65 63 63 59 59 61 60 54 63 64 65 66
70 69 69 67 67 67 68 71 71 70 70 69 69 70 72 72 70 72 73 71 73 74 76 74 73 74 74 73 73 72 72 73 73 72 72 71 71 70 73 73 69 69 66 66 66 63 63 63 65 64 66 65 67 66 66 62 57 59 56 60 64 65
70 69 67 65 65 68 69 70 70 71 71 71 70 69 71 71 72 72 71 72 72 73 74 75 74 75 74 74 73 72 73 72 73 75 73 71 70 70 71 71 70 71 70 69 67 65 64 64 62 61 64 65 64 65 66 66 65 60 59 57 59 64
69 67 65 66 66 68 70 70 71 71 71 71 72 71 71 72 71 72 71 72 72 74 73 73 74 73 74 74 72 73 72 72 71 72 74 73 71 72 70 69 69 68 68 68 67 68 66 65 65 63 63 63 64 63 63 64 65 64 59 59 58 60
67 68 67 67 68 70 72 72 71 71 71 70 71 71 71 70 70 72 70 70 71 71 71 71 71 73 72 75 73 73 72 71 71 72 73 72 71 70 69 69 69 68 69 68 68 68 66 66 67 66 66 64 62 62 62 60 61 61 62 61 58 60
67 67 67 68 70 68 71 73 72 72 71 70 70 70 68 69 69 70 69 69 70 71 71 70 71 71 71 72 71 71 70 71 72 71 72 73 70 72 70 69 70 69 69 68 67 67 67 67 67 65 66 65 63 63 61 60 58 60 60 60 59 60
66 66 67 68 69 68 70 71 71 71 71 70 71 70 69 68 69 69 69 69 69 69 69 70 69 69 69 70 70 69 70 70 70 70 70 70 71 71 70 70 68 68 68 68 68 68 67 66 66 65 65 65 64 64 64 64 64 63 62 62 62 61
66 67 68 68 68 69 70 71 71 71 70 70 70 70 70 69 70 69 70 70 69 68 68 68 68 68 69 69 69 69 69 68 68 69 69 70 70 71 69 69 69 68 68 68 67 67 66 66 67 66 66 66 65 66 66 66 66 65 64 64 63 60
66 68 68 69 69 69 70 71 72 71 71 71 70 70 70 71 71 70 72 70 70 69 68 67 68 68 69 70 69 69 69 69 69 69 69 69 69 69 69 71 69 67 67 67 67 66 66 66 66 67 68 66 66 66 65 67 67 65 62 61 62 63
67 68 68 69 69 70 70 70 71 72 71 71 71 70 70 71 71 70 71 71 71 70 68 69 68 69 70 69 69 69 69 68 69 69 69 69 70 68 68 69 68 67 67 67 67 66 65 65 67 67 66 66 67 66 67 68 68 67 67 65 66 65
68 68 69 69 70 70 70 70 71 71 71 71 71 71 71 71 71 71 71 71 70 70 70 69 69 69 69 69 68 68 69 69 69 69 69 69 68 68 67 66 66 66 66 71 66 66 65 65 65 65 65 66 66 66 67 68 70 68 69 68 68 68
69 69 69 70 70 70 70 70 70 71 71 71 71 71 70 70 70 72 72 71 70 70 69 69 70 70 69 69 69 68 68 68 68 68 68 69 69 68 67 67 66 65 65 67 66 67 65 65 65 66 65 65 65 65 66 67 67 68 68 68 68 68
MSLP
1012.74 1012.26 1012.54 1012.98 1013.06 1013.26 1013.62 1013.82 1013.98 1014.06 1014.10 1014.22 1014.38 1014.62 1014.86 1015.18 1015.70 1015.98 1015.62 1015.42 1015.78 1015.94 1016.02 1016.10 1016.22 1016.34 1016.46 1016.50 1016.54 1016.62 1016.74 1016.82 1016.90 1016.98 1017.02 1017.02 1017.02 1017.10 1017.18 1017.22 1017.26 1017.22 1017.18 1017.26 1017.26 1017.30 1017.34 1017.38 1017.38 1017.34 1017.26 1017.14 1017.02 1016.98 1016.74 1016.58 1016.22 1016.38 1016.90 1017.22 1017.46 1017.78
1012.42 1012.30 1012.86 1012.90 1013.06 1013.34 1013.66 1013.90 1014.02 1014.06 1014.14 1014.30 1014.46 1014.54 1014.74 1015.18 1015.58 1015.82 1015.58 1015.82 1016.10 1016.10 1016.10 1016.18 1016.30 1016.34 1016.50 1016.58 1016.66 1016.78 1016.86 1016.94 1016.98 1017.06 1017.06 1017.06 1017.10 1017.22 1017.34 1017.38 1017.38 1017.38 1017.30 1017.34 1017.38 1017.42 1017.34 1017.34 1017.38 1017.42 1017.38 1017.30 1017.18 1017.02 1016.74 1016.50 1016.46 1016.78 1017.10 1017.42 1017.70 1017.98
1012.14 1012.54 1012.78 1012.94 1013.14 1013.42 1013.78 1013.98 1013.94 1014.06 1014.18 1014.42 1014.46 1014.50 1014.74 1015.14 1015.78 1015.86 1015.86 1016.18 1016.30 1016.26 1016.22 1016.22 1016.26 1016.34 1016.46 1016.58 1016.78 1016.90 1016.94 1017.02 1017.10 1017.10 1017.14 1017.22 1017.30 1017.42 1017.50 1017.58 1017.54 1017.54 1017.50 1017.46 1017.50 1017.46 1017.30 1017.18 1017.26 1017.38 1017.42 1017.38 1017.30 1017.02 1016.74 1016.46 1016.66 1016.90 1017.34 1017.58 1017.86 1018.06
1012.34 1012.54 1012.58 1012.86 1013.14 1013.46 1013.82 1013.94 1014.06 1014.26 1014.38 1014.66 1014.74 1014.78 1014.90 1015.54 1016.02 1015.94 1015.94 1016.26 1016.34 1016.38 1016.30 1016.38 1016.38 1016.42 1016.62 1016.62 1016.86 1016.94 1017.02 1017.14 1017.22 1017.26 1017.30 1017.38 1017.50 1017.62 1017.66 1017.70 1017.66 1017.70 1017.66 1017.62 1017.54 1017.42 1017.22 1016.94 1017.02 1017.22 1017.38 1017.26 1017.18 1016.94 1016.78 1016.62 1016.74 1017.06 1017.34 1017.58 1017.90 1018.06
1012.22 1012.30 1012.50 1012.82 1013.10 1013.50 1013.86 1013.98 1014.30 1014.50 1014.58 1014.78 1014.86 1014.94 1015.06 1015.98 1016.34 1016.02 1015.86 1016.18 1016.50 1016.50 1016.54 1016.62 1016.62 1016.66 1016.78 1016.86 1017.02 1017.14 1017.18 1017.18 1017.26 1017.42 1017.46 1017.50 1017.58 1017.62 1017.74 1017.70 1017.70 1017.74 1017.74 1017.62 1017.54 1017.30 1017.10 1016.94 1016.86 1016.98 1017.14 1017.06 1016.86 1016.74 1016.62 1016.62 1016.78 1016.98 1017.30 1017.58 1017.90 1018.06
1012.14 1012.22 1012.42 1012.66 1012.98 1013.30 1013.74 1014.18 1014.50 1014.58 1014.70 1014.82 1014.98 1015.18 1015.34 1016.06 1016.46 1015.94 1015.78 1016.22 1016.58 1016.54 1016.66 1016.78 1016.86 1016.94 1017.06 1017.14 1017.14 1017.14 1017.06 1017.06 1017.18 1017.34 1017.46 1017.46 1017.38 1017.38 1017.62 1017.58 1017.54 1017.66 1017.70 1017.58 1017.38 1017.06 1016.94 1016.90 1016.78 1016.78 1016.78 1016.78 1016.66 1016.66 1016.62 1016.82 1016.94 1017.18 1017.38 1017.70 1017.94 1018.02
1011.98 1012.26 1012.50 1012.66 1012.94 1013.42 1013.82 1014.06 1014.26 1014.50 1014.78 1015.02 1015.18 1015.46 1015.66 1016.14 1016.50 1016.10 1015.78 1016.22 1016.50 1016.66 1016.82 1016.86 1016.98 1017.14 1017.34 1017.34 1017.34 1017.18 1017.18 1017.30 1017.46 1017.42 1017.38 1017.46 1017.50 1017.42 1017.46 1017.58 1017.70 1017.82 1017.74 1017.82 1017.70 1017.26 1016.86 1016.70 1016.58 1016.66 1016.78 1016.78 1016.70 1016.74 1016.82 1017.22 1017.14 1017.22 1017.54 1017.78 1017.98 1018.10
1011.90 1012.14 1012.58 1012.70 1013.18 1013.62 1013.98 1014.14 1014.30 1014.50 1014.74 1015.02 1015.30 1015.66 1015.86 1016.06 1016.50 1016.22 1015.74 1016.26 1016.30 1016.62 1016.82 1017.02 1017.06 1017.34 1017.86 1017.50 1017.42 1017.26 1017.30 1017.46 1017.42 1017.38 1017.34 1017.38 1017.54 1017.50 1017.50 1017.66 1017.90 1018.18 1018.70 1019.30 1019.46 1018.74 1018.02 1017.18 1016.90 1016.70 1016.82 1016.82 1016.70 1016.62 1016.94 1017.30 1017.26 1017.42 1017.62 1017.78 1017.98 1018.26
1011.86 1012.18 1012.46 1012.74 1013.34 1013.62 1013.90 1014.22 1014.46 1014.82 1014.98 1015.14 1015.50 1015.78 1015.94 1016.06 1016.30 1016.10 1015.70 1016.18 1016.50 1016.82 1017.02 1017.26 1017.18 1017.34 1017.34 1017.54 1017.46 1017.34 1017.46 1017.62 1017.50 1017.42 1017.42 1017.46 1017.50 1017.58 1017.62 1017.66 1017.90 1018.34 1018.58 1019.06 1018.94 1019.34 1018.94 1018.58 1018.22 1017.22 1016.90 1016.82 1016.74 1016.78 1018.18 1017.78 1017.62 1017.58 1017.70 1017.82 1018.02 1018.30
1011.90 1012.10 1012.42 1012.74 1013.34 1013.70 1013.98 1014.38 1014.58 1014.98 1015.14 1015.42 1015.74 1015.90 1015.98 1016.10 1016.22 1016.10 1015.90 1016.22 1016.42 1016.54 1016.94 1017.42 1017.54 1017.74 1017.62 1017.54 1017.42 1017.34 1017.50 1017.54 1017.50 1017.54 1017.66 1017.78 1017.70 1017.74 1017.66 1017.62 1017.82 1017.90 1017.90 1018.06 1018.02 1018.22 1018.22 1018.02 1017.98 1017.58 1016.82 1016.86 1016.70 1016.86 1018.30 1017.98 1017.62 1017.86 1017.82 1017.94 1018.14 1018.42
1012.02 1012.14 1012.38 1012.90 1013.42 1013.78 1013.98 1014.50 1014.78 1014.90 1015.14 1015.50 1015.70 1015.78 1015.98 1016.10 1016.14 1016.22 1016.30 1016.34 1016.38 1016.22 1016.62 1017.14 1017.34 1017.94 1017.78 1017.66 1017.46 1017.30 1017.70 1017.54 1017.54 1017.58 1017.70 1017.82 1017.70 1017.66 1017.58 1017.62 1017.74 1017.78 1018.10 1018.14 1018.06 1018.14 1018.10 1017.98 1017.90 1017.70 1017.42 1017.14 1016.86 1016.70 1017.58 1018.02 1017.62 1017.94 1018.06 1017.98 1018.30 1018.62
1013.38 1012.94 1012.70 1013.18 1013.30 1013.82 1014.02 1014.26 1014.54 1014.78 1015.02 1015.26 1015.54 1015.86 1016.02 1015.98 1015.94 1016.10 1016.18 1016.34 1016.46 1016.90 1017.30 1017.30 1017.62 1017.78 1017.62 1017.54 1017.54 1017.22 1017.10 1017.18 1017.22 1017.26 1017.42 1017.82 1017.86 1017.82 1017.94 1017.94 1018.06 1017.94 1017.82 1017.86 1018.14 1018.18 1018.06 1018.30 1018.18 1018.06 1017.70 1017.86 1017.94 1018.10 1017.98 1018.42 1018.14 1018.38 1018.22 1018.26 1018.50 1018.78
1013.74 1013.42 1013.34 1013.42 1013.58 1013.70 1013.98 1014.22 1014.54 1014.78 1014.98 1015.14 1015.46 1015.70 1015.54 1015.74 1015.86 1015.98 1016.38 1016.34 1016.74 1017.38 1017.10 1016.90 1017.02 1017.14 1017.14 1017.18 1017.26 1017.38 1017.38 1017.26 1017.26 1017.22 1017.30 1017.54 1017.70 1017.78 1017.90 1017.94 1018.06 1017.94 1018.06 1018.18 1018.30 1018.26 1018.22 1018.30 1018.30 1018.18 1018.02 1017.90 1017.82 1017.98 1018.54 1018.82 1018.42 1018.18 1018.42 1018.86 1019.18 1019.46
1014.02 1014.26 1014.30 1014.18 1014.30 1014.62 1014.58 1014.50 1014.62 1014.82 1015.02 1015.18 1015.54 1015.70 1015.46 1015.74 1015.74 1015.98 1016.30 1016.66 1016.86 1016.66 1016.50 1016.58 1016.66 1016.82 1016.78 1016.94 1017.14 1017.26 1017.22 1017.30 1017.38 1017.38 1017.46 1017.54 1017.66 1017.78 1017.98 1018.14 1018.22 1018.10 1018.18 1018.18 1018.22 1018.34 1018.46 1018.62 1018.58 1018.38 1018.30 1018.26 1018.26 1018.54 1019.50 1019.90 1019.22 1019.10 1019.58 1019.78 1020.14 1019.98
1014.02 1013.98 1014.30 1014.70 1014.86 1014.90 1014.50 1014.62 1014.98 1015.14 1015.26 1015.46 1015.58 1015.70 1015.78 1015.66 1016.02 1016.38 1016.86 1017.18 1016.86 1016.34 1016.42 1016.54 1016.54 1016.70 1016.82 1016.94 1017.14 1017.22 1017.26 1017.30 1017.38 1017.42 1017.58 1017.70 1017.82 1017.90 1018.06 1018.22 1018.22 1018.26 1018.30 1018.38 1018.38 1018.54 1018.66 1018.70 1018.66 1018.66 1018.66 1018.74 1018.82 1019.18 1020.34 1020.62 1019.98 1019.58 1019.30 1019.34 1019.38 1019.54
1013.94 1014.18 1014.50 1014.46 1014.22 1013.98 1014.38 1015.10 1015.38 1015.58 1015.58 1015.50 1015.50 1015.82 1015.90 1016.14 1016.46 1017.06 1017.22 1016.82 1016.26 1016.30 1016.34 1016.42 1016.46 1016.62 1016.82 1016.86 1017.02 1017.06 1017.14 1017.18 1017.34 1017.42 1017.50 1017.70 1017.78 1017.98 1018.06 1018.10 1018.10 1018.14 1018.50 1018.54 1018.58 1018.66 1018.66 1018.78 1018.62 1018.78 1018.78 1018.78 1018.94 1018.94 1019.98 1020.18 1020.14 1019.58 1019.10 1019.22 1019.54 1019.42
1013.82 1013.78 1014.06 1014.50 1014.66 1014.74 1014.86 1014.94 1014.82 1015.14 1015.58 1015.50 1015.58 1015.94 1016.54 1016.78 1016.26 1015.74 1015.82 1015.98 1016.10 1016.26 1016.30 1016.38 1016.46 1016.58 1016.78 1016.94 1017.02 1017.10 1017.14 1017.18 1017.30 1017.46 1017.58 1017.62 1017.78 1017.86 1017.98 1018.10 1018.26 1018.22 1018.26 1018.62 1018.58 1018.62 1018.66 1018.78 1018.90 1018.86 1018.98 1019.18 1019.30 1019.02 1019.18 1019.70 1019.86 1019.62 1019.18 1019.38 1019.58 1019.50
1013.82 1013.82 1013.82 1014.06 1014.30 1014.42 1014.54 1014.66 1014.74 1015.18 1015.46 1015.26 1015.30 1015.34 1015.26 1015.34 1015.66 1015.70 1015.78 1016.02 1016.14 1016.26 1016.30 1016.30 1016.38 1016.50 1016.70 1016.82 1016.86 1016.98 1017.18 1017.22 1017.38 1017.50 1017.58 1017.62 1017.66 1017.74 1017.86 1018.02 1018.34 1018.26 1018.30 1018.42 1018.54 1018.70 1018.86 1018.90 1018.90 1018.98 1019.18 1019.42 1019.46 1019.30 1019.06 1019.62 1020.14 1019.94 1019.46 1019.54 1019.70 1019.58
1013.74 1014.02 1014.10 1014.22 1014.42 1014.46 1014.54 1014.90 1015.14 1015.78 1015.66 1015.18 1014.90 1014.78 1014.86 1015.22 1015.58 1015.78 1015.90 1015.98 1016.06 1016.18 1016.22 1016.26 1016.30 1016.38 1016.62 1016.74 1016.86 1017.02 1017.18 1017.30 1017.38 1017.54 1017.58 1017.62 1017.58 1017.70 1017.90 1017.98 1018.14 1018.22 1018.10 1018.06 1018.30 1018.42 1018.70 1018.82 1018.90 1019.10 1019.26 1019.46 1019.34 1019.30 1019.50 1019.74 1019.62 1019.58 1019.46 1019.38 1019.50 1019.66
1013.94 1014.10 1014.38 1014.54 1014.66 1014.78 1014.82 1014.98 1015.38 1015.26 1015.18 1015.02 1014.98 1014.98 1015.02 1015.30 1015.42 1015.62 1015.66 1015.82 1016.02 1016.06 1016.14 1016.22 1016.26 1016.38 1016.50 1016.62 1016.82 1017.02 1017.14 1017.14 1017.30 1017.50 1017.58 1017.62 1017.66 1017.74 1017.94 1018.14 1018.18 1018.18 1018.26 1018.18 1018.02 1018.34 1018.54 1018.78 1019.10 1019.22 1019.42 1019.34 1019.14 1019.18 1019.66 1019.74 1019.70 1019.70 1019.62 1019.54 1019.58 1019.70
1014.14 1014.26 1014.54 1014.78 1014.78 1014.66 1014.86 1015.02 1014.90 1015.06 1015.22 1015.14 1015.26 1015.18 1015.22 1015.22 1015.30 1015.42 1015.42 1015.54 1015.78 1015.90 1015.98 1016.14 1016.26 1016.30 1016.46 1016.62 1016.82 1016.90 1017.06 1017.06 1017.10 1017.34 1017.54 1017.66 1017.62 1017.66 1017.74 1017.90 1018.02 1018.10 1018.22 1018.30 1018.58 1018.50 1018.50 1018.62 1019.06 1019.42 1019.26 1019.50 1019.34 1019.14 1019.54 1019.78 1019.90 1019.90 1019.90 1020.10 1020.18 1020.10
1014.10 1014.34 1014.50 1014.66 1014.66 1014.62 1014.70 1014.66 1014.70 1014.94 1014.98 1015.22 1015.38 1015.46 1015.70 1015.66 1015.62 1015.66 1015.66 1015.74 1015.82 1015.86 1015.90 1016.02 1016.10 1016.14 1016.30 1016.58 1016.74 1016.90 1016.98 1017.10 1017.18 1017.38 1017.54 1017.54 1017.62 1017.62 1017.70 1017.82 1017.90 1018.14 1017.98 1018.38 1018.78 1018.66 1018.82 1018.86 1019.30 1019.54 1019.94 1020.18 1019.86 1019.62 1019.82 1019.90 1020.06 1020.18 1020.10 1020.10 1020.42 1020.58
1013.98 1014.18 1014.38 1014.38 1014.46 1014.70 1014.58 1014.26 1014.30 1014.58 1014.66 1014.98 1014.90 1015.02 1015.34 1015.50 1015.54 1015.78 1015.78 1015.82 1015.86 1015.78 1015.82 1015.94 1015.94 1015.94 1016.06 1016.26 1016.50 1016.78 1016.98 1017.06 1017.14 1017.22 1017.50 1017.66 1017.66 1017.78 1017.78 1017.86 1017.94 1018.14 1018.30 1018.22 1018.46 1018.42 1018.58 1018.58 1019.34 1019.26 1019.34 1019.74 1020.34 1020.38 1020.14 1020.30 1020.18 1020.22 1020.10 1020.06 1020.22 1020.70
1013.86 1013.98 1014.22 1014.42 1014.50 1014.42 1014.22 1014.06 1014.26 1014.58 1014.70 1014.98 1015.46 1015.34 1015.42 1015.46 1015.58 1015.62 1015.86 1015.82 1015.86 1015.78 1015.74 1015.74 1015.66 1015.78 1016.02 1016.18 1016.22 1016.46 1016.62 1016.78 1017.06 1017.06 1017.34 1017.66 1017.70 1017.74 1017.82 1018.02 1017.90 1017.98 1018.06 1018.50 1018.46 1018.42 1018.38 1018.82 1019.06 1019.38 1020.22 1020.06 1020.14 1020.10 1020.94 1021.10 1020.94 1020.58 1020.22 1020.34 1020.38 1020.94
1013.90 1014.02 1014.18 1014.26 1014.22 1014.14 1014.06 1014.26 1014.46 1014.70 1014.86 1015.18 1015.34 1015.54 1015.74 1015.86 1015.78 1015.82 1015.90 1015.94 1016.02 1015.82 1015.86 1015.98 1015.90 1015.94 1016.14 1016.34 1016.30 1016.30 1016.46 1016.62 1016.78 1016.86 1017.10 1017.34 1017.50 1017.66 1017.78 1017.78 1017.78 1018.02 1018.10 1018.26 1018.66 1018.50 1018.38 1018.58 1018.94 1019.06 1019.66 1019.94 1020.38 1020.54 1020.46 1020.82 1020.70 1020.98 1020.42 1020.66 1020.86 1020.66
1013.78 1013.90 1014.06 1014.06 1013.98 1013.94 1014.10 1014.38 1014.90 1015.46 1015.86 1016.02 1016.26 1016.18 1016.30 1016.34 1016.14 1016.14 1016.18 1015.86 1015.78 1015.82 1015.94 1015.98 1016.10 1016.22 1016.26 1016.38 1016.50 1016.50 1016.42 1016.58 1016.78 1016.94 1016.98 1017.06 1017.10 1017.22 1017.42 1017.74 1017.82 1017.86 1018.10 1018.14 1018.22 1018.50 1018.82 1018.78 1018.78 1019.06 1019.42 1019.58 1019.66 1020.46 1020.46 1020.26 1020.38 1021.90 1020.82 1020.82 1020.78 1020.74
1013.50 1013.62 1013.78 1013.86 1013.86 1013.78 1013.98 1014.26 1014.78 1015.30 1015.62 1015.98 1016.18 1015.98 1015.70 1015.70 1015.90 1015.94 1015.94 1016.14 1016.14 1016.06 1016.06 1016.26 1016.34 1016.38 1016.50 1016.58 1016.66 1016.70 1016.70 1016.66 1016.78 1016.90 1017.02 1017.14 1017.22 1017.22 1017.18 1017.42 1017.78 1017.74 1017.94 1018.10 1018.10 1018.66 1018.90 1018.86 1018.82 1019.02 1019.10 1019.26 1019.26 1019.30 1019.26 1019.98 1021.06 1021.02 1021.74 1021.38 1020.98 1020.82
1013.14 1013.42 1013.66 1013.90 1013.86 1013.66 1013.86 1014.26 1014.74 1015.14 1015.38 1015.58 1015.78 1015.98 1015.82 1015.86 1015.78 1015.98 1016.22 1016.34 1016.30 1016.26 1016.22 1016.26 1016.34 1016.42 1016.54 1016.66 1016.78 1016.86 1016.82 1016.82 1016.74 1016.74 1016.90 1017.18 1017.38 1017.34 1017.34 1017.42 1017.46 1017.50 1017.66 1017.78 1018.02 1018.42 1018.74 1018.78 1019.14 1019.38 1019.10 1019.34 1019.54 1019.26 1019.26 1019.42 1019.78 1020.30 1020.74 1021.78 1021.86 1021.22
1013.10 1013.38 1013.70 1013.62 1013.70 1013.58 1013.82 1014.22 1014.70 1014.98 1015.30 1015.34 1015.54 1015.74 1015.78 1015.86 1016.10 1016.14 1016.38 1016.34 1016.34 1016.34 1016.38 1016.38 1016.46 1016.58 1016.58 1016.70 1016.82 1016.86 1016.86 1016.90 1016.90 1016.90 1016.90 1017.22 1017.42 1017.54 1017.58 1017.66 1017.66 1017.74 1017.82 1018.02 1018.10 1018.18 1018.46 1018.78 1018.82 1019.26 1019.30 1019.46 1019.42 1019.50 1019.62 1019.78 1019.78 1019.94 1020.66 1021.26 1021.86 1021.70
1013.30 1013.34 1013.34 1013.42 1013.42 1013.54 1013.82 1014.18 1014.70 1014.90 1015.22 1015.54 1015.58 1015.74 1015.86 1016.22 1016.34 1016.34 1016.58 1016.58 1016.58 1016.70 1016.74 1016.82 1016.82 1016.74 1016.74 1016.70 1016.78 1016.86 1017.10 1017.22 1017.14 1017.06 1017.06 1017.30 1017.50 1017.58 1017.66 1017.70 1017.78 1017.78 1017.86 1018.14 1018.10 1018.26 1018.50 1018.62 1018.70 1018.86 1018.94 1019.22 1019.62 1019.70 1019.78 1020.14 1020.30 1020.42 1020.50 1020.58 1021.46 1021.78
1012.86 1013.06 1013.34 1013.46 1013.38 1013.70 1013.82 1014.22 1014.66 1014.86 1015.18 1015.54 1015.70 1015.90 1016.26 1016.50 1016.54 1016.66 1016.86 1016.86 1016.86 1016.90 1016.94 1017.14 1017.14 1017.10 1017.02 1017.02 1017.06 1017.10 1017.26 1017.30 1017.26 1017.22 1017.22 1017.26 1017.42 1017.54 1017.66 1017.70 1017.74 1017.82 1017.98 1018.22 1018.38 1018.46 1018.50 1018.58 1018.74 1018.86 1018.86 1019.06 1019.38 1019.54 1019.62 1020.10 1020.50 1020.46 1020.46 1020.86 1021.26 1021.42
1013.10 1013.34 1013.46 1013.50 1013.58 1013.86 1014.10 1014.46 1014.78 1014.82 1015.14 1015.34 1015.58 1015.94 1016.26 1016.50 1016.62 1016.78 1016.82 1016.94 1016.90 1017.06 1017.26 1017.30 1017.34 1017.38 1017.30 1017.22 1017.26 1017.38 1017.38 1017.42 1017.54 1017.54 1017.54 1017.42 1017.46 1017.54 1017.66 1017.74 1017.78 1017.90 1018.02 1018.10 1018.22 1018.38 1018.54 1018.78 1018.78 1018.82 1018.90 1019.02 1019.22 1019.18 1019.34 1019.62 1019.78 1020.02 1020.26 1020.38 1020.66 1021.06
1013.30 1013.34 1013.54 1013.66 1013.86 1014.10 1014.42 1014.66 1014.78 1014.90 1015.14 1015.26 1015.50 1015.74 1016.02 1016.26 1016.30 1016.58 1016.70 1016.90 1017.10 1017.34 1017.42 1017.58 1017.58 1017.58 1017.46 1017.34 1017.34 1017.50 1017.62 1017.78 1017.82 1017.78 1017.70 1017.66 1017.62 1017.66 1017.78 1017.82 1017.90 1018.02 1018.14 1018.30 1018.46 1018.50 1018.62 1018.62 1018.54 1018.62 1018.78 1018.90 1019.02 1019.02 1019.14 1019.18 1019.30 1019.62 1019.82 1020.02 1020.34 1020.66
1013.42 1013.42 1013.62 1013.82 1013.98 1014.30 1014.50 1014.58 1014.58 1014.82 1015.02 1015.14 1015.38 1015.54 1015.74 1015.98 1016.14 1016.30 1016.50 1016.82 1017.02 1017.26 1017.46 1017.66 1017.66 1017.66 1017.46 1017.46 1017.46 1017.50 1017.58 1017.74 1017.82 1017.86 1017.86 1017.82 1017.78 1017.78 1017.86 1018.02 1018.10 1018.22 1018.34 1018.42 1018.46 1018.58 1018.66 1018.62 1018.46 1018.38 1018.38 1018.74 1018.78 1018.82 1018.94 1019.02 1019.14 1019.34 1019.82 1020.14 1020.38 1020.26
1013.66 1013.70 1013.70 1013.86 1013.94 1014.18 1014.42 1014.50 1014.46 1014.58 1014.82 1014.90 1015.18 1015.38 1015.54 1015.70 1015.98 1016.26 1016.42 1016.70 1016.86 1017.10 1017.42 1017.54 1017.58 1017.50 1017.46 1017.54 1017.54 1017.58 1017.70 1017.82 1017.86 1017.86 1017.90 1017.94 1017.94 1018.02 1018.06 1018.10 1018.22 1018.30 1018.34 1018.42 1018.58 1018.70 1018.78 1018.78 1018.78 1018.66 1018.66 1018.66 1018.70 1018.78 1018.82 1018.82 1019.02 1019.26 1019.30 1019.58 1019.58 1019.70
1013.46 1013.66 1013.70 1013.70 1013.74 1013.86 1014.18 1014.38 1014.42 1014.54 1014.70 1014.74 1014.90 1015.10 1015.34 1015.66 1015.90 1016.06 1016.38 1016.54 1016.86 1017.06 1017.26 1017.42 1017.46 1017.50 1017.54 1017.54 1017.62 1017.66 1017.70 1017.82 1017.82 1017.86 1017.90 1017.98 1018.10 1018.18 1018.22 1018.30 1018.34 1018.38 1018.50 1018.38 1018.62 1018.78 1018.86 1018.86 1018.86 1018.82 1018.86 1018.82 1018.90 1018.98 1018.86 1018.78 1018.78 1018.98 1018.98 1018.94 1019.02 1019.22
1013.58 1013.62 1013.74 1013.82 1013.90 1013.98 1014.18 1014.46 1014.58 1014.62 1014.74 1014.86 1014.98 1015.10 1015.38 1015.70 1015.98 1016.10 1016.26 1016.46 1016.74 1017.02 1017.22 1017.38 1017.50 1017.46 1017.54 1017.50 1017.54 1017.70 1017.82 1017.86 1017.90 1017.94 1017.98 1018.02 1018.10 1018.18 1018.26 1018.42 1018.54 1018.62 1018.70 1018.66 1018.74 1018.90 1018.94 1019.02 1018.98 1018.94 1019.02 1019.10 1019.22 1019.22 1019.10 1018.94 1018.90 1018.86 1018.90 1018.94 1018.94 1019.10
Wind_Speed
9 9 6 6 6 7 9 12 10 11 10 9 11 12 13 15 14 11 8 7 6 3 4 4 6 6 9 6 4 7 8 8 7 8 7 7 7 6 7 6 6 5 5 5 6 6 5 5 6 5 6 8 9 4 4 6 2 7 8 7 8 8
11 10 8 5 6 6 8 8 9 7 6 7 9 11 10 10 11 8 9 6 3 2 2 2 1 7 4 6 6 8 7 7 8 8 7 7 6 5 4 5 5 5 6 6 6 3 4 6 6 7 7 6 4 4 6 3 3 7 8 7 7 8
11 10 11 9 7 7 9 7 9 9 7 8 8 9 7 9 8 7 5 4 3 1 1 1 1 5 4 7 7 8 8 8 8 7 7 6 5 5 4 3 5 5 6 7 4 4 4 5 5 8 7 5 3 5 5 3 3 6 8 7 6 11
11 12 9 6 8 7 7 6 5 5 5 5 5 4 4 7 6 3 3 4 4 2 0 1 0 6 4 4 5 5 7 8 7 6 6 4 4 3 3 3 4 5 3 4 3 5 6 4 5 4 4 5 5 5 6 1 5 5 7 9 8 11
12 11 9 7 9 8 7 7 6 7 6 5 4 4 4 5 8 3 2 3 5 3 2 1 1 1 1 2 3 3 4 4 3 2 5 2 2 3 3 3 2 2 3 4 5 6 7 3 5 5 6 6 7 6 3 3 4 5 6 6 8 11
11 13 10 8 9 9 11 7 6 6 5 5 5 4 4 5 8 5 4 3 5 3 1 1 2 2 1 1 1 3 4 2 3 4 4 3 3 3 3 4 3 3 4 5 6 5 5 6 4 3 1 3 1 0 2 5 4 7 7 6 8 13
11 11 11 8 8 8 7 6 6 6 6 5 5 5 4 5 6 1 3 3 4 3 2 1 5 2 2 1 2 0 2 1 2 1 4 3 1 1 1 3 3 4 5 6 8 6 5 3 3 1 4 3 3 3 3 4 1 6 6 6 8 13
10 11 10 10 9 8 6 7 6 6 5 6 5 5 4 5 7 3 3 4 5 3 1 1 2 1 3 3 4 2 1 0 1 1 0 1 2 2 1 2 3 7 9 10 11 11 11 6 3 3 2 3 2 3 5 3 2 4 5 6 7 10
11 11 8 10 9 7 7 6 6 5 3 6 3 5 5 5 6 3 4 3 4 1 2 1 2 2 4 4 2 1 2 1 1 2 1 1 1 1 1 1 3 4 2 4 3 5 8 10 12 7 3 5 3 2 10 3 3 3 4 5 6 8
12 11 9 9 6 7 7 7 7 6 5 5 4 5 6 4 4 4 2 5 3 3 3 1 4 2 5 3 3 2 1 0 1 1 1 1 1 1 0 2 3 4 5 3 1 3 2 3 5 10 3 4 2 3 11 4 4 1 3 6 5 6
8 8 8 9 8 7 7 8 6 6 5 5 5 5 4 5 4 5 4 5 2 2 4 2 2 2 5 4 2 2 3 3 2 2 2 3 1 1 1 1 1 0 2 2 1 1 2 4 4 5 8 8 4 2 10 5 5 3 2 4 6 5
6 3 4 7 7 8 7 7 7 6 5 6 6 4 4 4 4 5 4 3 4 1 5 6 7 8 4 4 5 2 2 1 1 1 2 4 3 1 0 1 1 2 3 1 0 0 1 2 4 5 7 5 4 8 9 3 5 3 1 3 7 5
5 3 4 7 7 7 6 6 5 5 5 5 5 5 6 7 4 4 4 4 4 8 7 3 2 5 5 4 3 4 3 2 1 1 1 2 2 2 1 1 1 1 1 2 3 1 1 1 2 5 7 6 6 9 9 4 5 1 1 6 7 7
6 7 9 11 12 9 6 5 3 4 4 4 5 5 4 4 3 4 4 2 6 7 4 2 2 2 3 4 3 2 3 2 2 2 1 0 1 2 2 1 0 0 1 1 1 2 2 2 2 2 4 8 8 7 9 3 4 5 8 10 7 5
10 9 8 10 9 8 3 1 2 2 2 2 4 5 3 4 4 4 4 7 9 4 5 7 5 2 4 4 2 2 3 3 2 3 3 2 0 1 2 2 1 1 1 0 2 2 1 1 3 4 5 7 7 9 9 9 11 6 7 7 7 3
9 10 8 8 8 8 5 4 2 0 2 1 3 4 2 1 4 8 9 7 5 4 3 3 3 5 2 4 4 3 2 2 3 3 3 4 3 2 2 2 3 1 1 1 0 0 0 1 2 2 5 6 7 8 6 7 5 4 5 6 4 3
10 9 7 8 6 6 6 5 5 5 1 1 3 3 7 9 6 4 4 5 4 4 4 4 4 4 3 3 0 3 1 3 3 2 2 4 3 2 1 2 2 2 2 1 1 0 0 1 0 2 6 6 4 6 3 4 7 3 2 6 5 5
8 6 7 9 9 7 5 5 5 3 6 3 6 8 7 5 5 2 4 4 4 4 3 3 4 5 4 3 2 2 3 3 2 2 2 2 2 3 2 1 2 2 2 1 0 1 1 1 1 4 5 6 4 3 1 2 4 2 2 4 5 5
8 7 4 6 6 5 6 5 6 8 10 7 3 2 4 6 5 3 3 4 4 4 3 3 3 4 3 3 3 2 2 2 2 1 2 2 2 2 1 1 0 1 1 1 1 1 2 2 4 5 5 5 3 3 2 3 2 3 4 3 4 5
6 6 7 5 4 5 5 5 7 8 5 2 3 3 5 5 5 5 3 5 5 2 4 2 4 5 1 3 3 3 2 3 4 3 2 2 0 2 2 2 2 1 1 0 1 2 2 3 4 3 5 3 2 2 3 4 4 3 3 2 2 2
6 7 5 5 2 3 4 3 2 3 4 3 4 2 3 3 3 3 3 7 5 4 4 5 3 3 3 4 2 3 3 2 2 1 1 1 1 0 2 1 2 3 2 1 4 2 1 2 3 3 3 4 1 1 5 5 5 3 4 4 3 1
6 6 5 4 3 3 2 1 4 3 3 6 4 3 5 4 4 4 4 4 4 3 4 3 3 3 6 5 2 2 3 1 2 2 1 2 1 0 2 2 1 1 1 2 2 1 2 0 2 2 3 2 1 1 3 5 4 4 3 3 4 0
6 5 4 3 3 2 0 2 1 1 4 4 4 4 5 4 4 5 3 4 2 2 3 4 3 3 4 4 5 4 3 1 2 0 1 1 1 2 2 1 2 1 2 2 1 2 3 4 2 2 2 2 2 1 1 3 3 2 2 2 2 5
6 5 5 4 3 1 1 4 8 9 9 7 5 5 4 4 4 4 4 4 2 1 1 1 2 5 4 2 1 4 4 3 4 3 3 1 1 1 2 2 1 2 1 2 1 1 3 3 2 1 1 1 1 1 4 2 2 0 1 3 5 7
6 6 6 3 2 2 3 6 6 6 5 5 3 3 4 3 4 4 4 3 3 2 3 3 3 4 5 3 3 2 2 3 2 1 4 4 3 2 2 2 3 3 1 1 2 1 2 2 3 2 1 1 2 1 2 5 4 2 1 2 5 6
7 6 5 4 3 3 5 5 6 5 4 3 3 2 3 4 3 3 4 3 3 3 3 3 5 4 4 3 3 3 3 3 3 3 5 4 2 3 6 5 1 2 3 0 2 2 2 2 1 4 3 1 2 1 1 3 2 2 2 3 3 4
8 7 5 4 4 6 5 4 4 3 2 3 2 2 3 4 5 4 5 5 3 3 4 5 4 3 3 3 3 4 3 1 4 3 3 2 2 4 5 6 3 2 2 2 2 3 3 1 2 1 1 0 1 1 3 2 2 3 4 1 1 4
8 7 5 4 4 4 5 4 3 2 3 3 3 4 3 4 4 4 4 3 3 2 3 3 3 4 4 3 3 3 1 2 1 4 4 4 4 4 5 6 5 5 3 3 3 2 3 3 3 1 0 3 1 3 2 2 2 2 4 5 6 3
9 8 6 6 5 4 4 5 2 3 3 4 5 3 4 3 3 3 3 2 2 3 4 4 3 3 2 5 5 2 2 4 5 4 4 6 5 4 4 4 4 4 4 4 2 1 3 3 3 2 1 2 2 1 1 2 2 3 4 4 6 5
9 8 8 7 6 5 5 5 4 4 5 5 4 4 3 4 3 1 3 4 3 4 4 3 5 4 3 4 4 4 5 4 3 3 4 6 5 4 4 4 4 4 5 5 3 4 4 3 3 2 3 3 2 1 1 1 2 2 3 3 5 6
12 8 7 6 5 5 4 5 3 3 6 5 5 4 5 4 3 2 3 3 3 3 3 4 2 2 3 4 4 4 3 3 2 4 4 3 3 5 3 3 4 5 6 6 5 5 6 4 3 2 4 3 3 3 2 2 2 2 2 3 6 4
9 8 8 7 7 7 5 3 2 4 5 5 5 5 5 4 3 3 3 3 4 4 4 3 3 3 3 4 4 4 3 4 4 3 4 3 4 4 5 4 4 4 4 4 4 4 3 4 3 4 3 3 3 1 2 3 3 4 2 5 6 6
12 10 9 8 8 7 5 3 3 5 5 5 5 6 5 4 4 4 2 3 3 4 4 3 2 2 2 3 3 4 4 4 4 4 4 3 3 5 4 4 4 5 5 5 5 4 4 3 1 3 6 5 5 3 3 3 3 3 4 4 4 3
10 11 9 10 9 8 6 3 3 5 5 5 5 5 5 4 3 4 3 3 3 3 4 3 3 3 3 4 4 4 4 4 3 3 3 4 5 4 4 5 4 5 5 5 5 4 4 3 4 4 3 4 3 4 4 4 3 5 5 4 4 3
10 9 11 11 11 10 8 5 4 7 6 4 6 5 5 4 4 4 3 3 3 4 4 3 3 3 4 3 3 4 4 4 3 3 3 3 3 4 5 4 4 5 4 5 6 6 5 4 4 4 4 3 4 5 1 5 6 4 2 5 3 4
11 11 11 12 11 11 9 5 4 5 5 6 6 5 5 5 3 4 3 3 4 4 4 4 3 3 3 4 4 4 3 3 3 3 3 3 4 3 4 4 4 4 4 3 5 4 4 3 4 4 4 4 5 5 6 5 4 3 3 4 3 5
11 11 10 9 8 8 8 6 4 5 3 3 4 5 6 5 5 3 3 3 4 4 5 3 3 3 3 3 3 4 4 3 4 4 3 3 3 3 4 4 4 4 4 4 4 4 4 4 3 3 5 5 4 3 4 5 4 4 4 1 3 1
Wind_Direction
103 171 151 115 136 128 129 119 116 126 140 136 132 134 134 134 130 125 144 174 116 92 136 148 152 144 143 147 143 127 143 141 140 139 142 147 150 161 181 186 196 209 225 222 229 230 228 219 221 232 250 273 291 304 279 280 28 64 88 99 100 113
155 171 142 146 140 129 124 122 135 138 133 145 138 141 144 142 134 133 170 157 107 65 52 122 170 145 161 147 138 139 146 149 145 147 147 141 147 152 169 191 203 221 236 242 243 248 233 232 219 219 237 252 276 272 267 271 124 101 104 95 106 124
150 148 155 149 144 138 138 138 154 150 159 167 155 146 147 139 126 157 183 125 108 60 12 63 19 156 159 154 137 149 155 157 154 152 145 139 137 159 178 210 222 234 250 266 268 249 237 201 204 211 219 228 244 243 261 264 60 92 99 112 118 133
141 155 157 143 142 143 137 157 163 144 145 140 137 130 146 125 124 162 181 114 118 115 101 38 110 145 147 126 132 144 158 158 156 154 146 140 140 163 206 244 260 270 269 266 253 250 256 197 185 172 206 218 226 240 225 211 141 125 114 122 130 136
149 156 157 149 146 148 147 172 152 156 156 150 143 146 143 139 123 192 222 120 115 160 186 116 125 89 131 87 138 159 155 164 161 162 171 184 168 179 196 219 231 234 257 250 247 248 253 268 169 175 197 209 221 211 186 171 46 97 113 112 132 136
156 163 159 153 151 150 153 161 154 157 150 147 141 162 141 134 123 194 211 119 105 139 109 2 59 107 135 37 197 182 175 154 178 167 181 241 197 165 187 241 205 217 225 249 255 277 288 257 157 205 223 246 264 185 181 58 103 83 105 122 138 136
162 161 159 152 148 148 152 151 144 152 151 149 152 146 143 117 108 215 225 105 122 122 156 189 145 204 71 233 289 191 64 40 9 194 185 203 332 347 343 358 359 335 323 319 315 285 260 303 306 195 182 248 190 215 88 87 55 111 111 128 140 134
162 158 162 156 145 146 140 146 145 143 145 146 138 136 120 105 117 195 242 108 117 122 173 157 91 72 124 230 248 194 120 84 229 261 51 276 184 202 111 13 12 23 7 344 326 316 333 317 284 317 347 216 204 238 90 113 116 82 123 127 134 137
158 152 151 151 148 135 137 140 133 132 131 130 134 124 115 122 113 160 227 109 88 161 124 290 148 218 191 152 122 20 79 71 319 310 283 101 15 29 77 68 45 65 68 252 255 360 333 334 331 286 232 278 206 133 76 32 335 108 113 126 135 139
156 150 148 149 123 134 147 145 141 134 139 136 121 126 128 108 118 168 179 82 172 223 142 122 93 358 310 77 70 38 26 283 253 348 4 355 51 65 63 111 139 155 204 223 213 134 212 272 289 313 301 249 218 82 112 216 231 84 135 132 128 138
141 121 144 138 139 146 144 134 144 132 142 137 118 118 115 127 148 152 147 148 143 345 9 24 49 340 227 134 143 187 179 221 206 164 173 89 352 41 349 344 274 307 35 62 48 301 310 325 323 314 324 322 325 109 118 167 230 136 118 114 115 133
76 120 129 138 136 141 139 139 143 139 132 115 126 124 126 154 149 133 128 83 105 249 237 212 174 207 180 126 151 208 282 199 199 179 113 121 132 134 129 325 120 201 180 155 106 357 350 306 311 317 307 334 342 267 107 156 256 119 146 106 124 122
129 122 70 131 133 130 126 126 122 117 116 130 141 133 174 148 147 119 112 134 160 208 208 162 204 175 147 139 144 154 174 186 164 53 57 81 132 123 96 84 300 348 75 158 190 154 234 283 323 318 321 331 349 322 78 123 299 120 59 49 29 62
48 30 15 30 34 29 28 75 103 114 130 142 132 142 128 132 127 98 84 123 226 197 152 170 199 184 121 133 131 183 169 151 147 112 109 168 91 115 125 152 194 345 314 1 49 61 357 9 319 310 335 335 1 18 26 26 245 28 37 69 51 62
98 80 75 73 68 78 147 76 38 81 96 132 123 126 149 154 138 129 141 218 207 177 168 169 179 158 134 120 154 171 167 162 147 140 157 98 204 161 169 152 163 203 114 350 29 70 27 340 315 4 8 9 8 41 35 42 54 65 90 114 133 127
93 100 111 119 137 145 130 89 70 288 95 10 70 106 110 339 160 169 173 208 172 165 157 163 148 127 142 149 181 187 136 134 133 158 155 156 184 183 177 161 175 184 109 81 304 58 73 359 348 5 26 43 15 44 58 69 66 43 114 113 110 114
113 133 129 114 94 66 73 76 64 354 16 181 105 110 155 195 212 162 139 144 145 144 156 148 138 126 138 112 302 121 168 137 145 146 167 164 173 186 162 151 67 38 51 63 303 63 121 110 273 38 50 49 40 71 104 153 138 189 82 109 110 128
116 126 139 126 122 116 107 101 76 35 267 197 195 195 171 150 115 84 139 116 135 148 147 137 138 131 124 163 179 113 98 119 109 151 162 187 157 154 154 110 151 132 142 191 218 110 80 71 45 59 60 58 51 129 172 43 71 214 142 86 118 138
123 133 105 93 103 104 113 113 123 199 222 199 191 119 109 95 100 103 108 131 123 135 128 131 127 110 139 153 114 109 136 135 144 155 177 217 163 113 98 130 76 104 153 215 169 76 93 66 58 56 62 60 53 17 30 70 76 56 92 119 125 126
117 110 103 91 112 122 142 155 178 191 193 145 105 62 92 117 147 141 117 104 115 115 110 116 123 139 144 117 130 142 157 176 150 182 197 153 88 142 144 132 161 110 183 203 162 90 113 113 89 87 94 82 48 321 48 66 63 83 72 105 101 105
120 118 119 130 148 147 122 164 152 122 102 94 94 125 98 94 82 60 119 129 128 135 130 126 120 101 110 103 87 162 172 169 95 121 149 81 116 331 111 147 137 161 213 157 68 64 78 74 100 93 68 84 135 308 68 68 63 64 78 64 15 8
119 126 130 131 151 77 80 241 120 135 126 109 163 121 82 79 76 90 72 60 81 116 121 111 115 133 133 133 125 52 39 35 144 137 167 161 144 220 105 145 109 110 139 83 112 115 71 236 112 114 142 108 321 34 61 66 59 49 63 103 127 100
125 126 114 105 93 105 218 333 91 120 144 138 59 85 103 119 123 102 87 95 95 101 121 128 143 163 129 120 146 149 152 150 73 93 108 78 188 143 102 68 100 112 84 72 124 117 97 54 79 39 87 129 141 98 42 91 62 67 53 116 111 78
129 111 93 62 65 107 344 57 66 67 60 80 94 83 85 90 117 132 106 98 85 29 70 88 126 102 76 94 128 140 146 147 164 173 124 140 238 146 149 128 150 100 107 135 77 85 82 108 91 43 47 80 176 181 146 126 116 10 99 50 57 83
117 108 98 108 80 53 56 84 82 71 76 85 89 116 138 117 92 94 119 110 131 102 66 76 60 67 80 65 43 23 112 120 96 139 159 166 189 157 154 158 138 120 147 52 104 31 76 77 108 92 61 256 127 227 53 116 129 68 30 118 111 125
127 121 122 120 112 114 84 91 85 87 93 91 117 155 110 127 155 136 106 137 98 89 102 74 60 56 68 70 61 46 3 86 73 74 34 34 41 148 170 127 84 118 91 33 96 96 39 69 82 127 149 253 37 62 115 127 116 88 355 45 103 122
134 127 127 134 162 116 95 93 102 110 123 158 162 91 87 70 82 76 70 70 87 95 87 66 68 86 90 82 64 40 20 40 138 116 109 101 71 28 59 97 148 144 114 130 137 111 108 79 79 69 122 177 57 208 17 94 110 146 131 137 86 102
125 119 132 155 153 133 107 110 119 155 177 180 103 105 91 81 75 83 97 108 108 108 110 147 149 131 114 97 92 104 104 332 303 138 118 91 72 42 51 52 59 78 127 101 94 95 105 112 118 69 263 99 15 19 353 62 81 171 140 127 107 84
122 130 148 171 163 126 118 122 166 193 181 103 114 110 106 110 104 117 143 157 113 92 61 60 77 83 98 122 127 116 54 35 11 1 113 86 75 81 76 76 85 92 81 96 88 83 114 120 113 134 128 94 120 52 60 35 54 49 81 116 113 117
135 149 171 167 160 144 146 147 179 205 131 123 131 133 117 97 105 131 76 73 67 72 90 60 38 34 31 48 50 75 63 30 5 32 68 111 117 99 89 97 88 76 79 83 79 61 76 97 83 120 138 121 95 141 91 68 59 72 96 58 121 126
154 150 147 152 140 101 99 155 202 165 127 139 132 121 112 120 120 99 127 135 129 115 88 98 84 56 77 76 62 53 77 93 47 13 38 63 74 85 82 76 87 79 82 91 88 87 74 91 128 111 93 107 124 157 187 118 149 162 133 127 119 132
139 142 151 144 122 111 108 138 253 136 132 130 132 125 134 136 143 144 156 146 108 100 107 91 80 69 63 89 100 102 60 51 41 42 35 37 88 104 106 88 66 82 78 82 88 97 117 129 127 129 131 126 118 154 162 138 141 125 131 127 142 151
148 147 147 137 132 123 132 173 185 132 134 133 135 137 136 141 152 131 150 116 128 115 121 115 117 114 123 82 72 75 89 72 48 30 30 33 78 94 78 76 84 72 72 74 66 66 56 44 110 141 137 139 149 163 110 81 106 114 85 81 116 164
137 143 141 141 140 138 143 172 153 138 138 144 132 140 141 142 139 132 136 128 143 135 104 107 132 134 113 94 78 83 88 107 113 86 68 50 37 51 86 81 69 84 84 72 66 67 66 46 32 41 69 103 113 134 143 149 137 123 139 124 202 152
138 142 150 153 152 151 153 171 169 142 150 144 140 143 140 125 133 130 125 152 135 105 112 130 115 93 96 109 103 84 89 96 100 111 103 80 70 69 70 84 102 95 87 104 103 83 62 50 35 36 58 66 61 48 87 144 143 143 153 181 165 133
151 152 160 162 160 155 155 163 148 143 158 156 143 143 124 120 109 118 139 148 107 116 123 113 103 107 99 108 131 132 114 96 100 100 91 78 81 74 69 71 66 66 79 78 89 93 91 66 50 41 53 63 56 39 26 27 69 94 134 148 152 162
156 160 160 158 151 142 143 143 143 149 148 139 137 134 124 122 122 122 133 109 113 113 117 123 130 119 131 126 111 108 103 88 86 104 119 122 98 87 99 94 81 80 79 76 78 82 78 68 50 51 60 57 61 64 43 33 29 40 35 86 170 172